Tracking 31027 objects as of 19-Jul-2025
HD Live streaming from Space Station
objects crossing your sky now

STARLINK-4411

Track STARLINK-4411 now!
10-day predictions
STARLINK-4411 is classified as:


NORAD ID: 53202
Int'l Code: 2022-084P
Perigee: 568.4 km
Apogee: 577.8 km
Inclination: 97.7 °
Period: 96.0 minutes
Semi major axis: 6944 km
RCS: Unknown
Launch date: July 22, 2022
Source: United States (US)
Launch site: AIR FORCE WESTERN TEST RANGE (AFWTR)
Your satellite tracking list
FENGYUN 1C DEB
Track 1 satellite(s)




NASA's NSSDC Master Catalog

Two Line Element Set (TLE):
1 53202U 22084P   25199.61366193 -.00121570  00000-0 -98646-2 0  9992
2 53202  97.6548 260.7787 0006777 161.3687 198.7786 15.00294592164564
Source of the keplerian elements: AFSPC